Wetbulb
56.82 56.92 56.67 56.60 56.15 56.22 56.55 56.81 56.53 56.87 57.42 58.00 58.11 58.09 58.60 57.95 57.21 61.09 56.04 57.62 60.02 63.18 63.03 60.11 58.20 57.76 56.08 52.44 52.60 51.44 45.06 41.92 44.88 47.61 48.57 53.09 52.27 54.36 54.76 53.19 53.76 57.42 56.13 62.39 65.67
55.67 55.86 55.99 56.20 55.89 56.03 56.42 56.41 56.13 56.69 57.11 57.49 57.82 58.05 58.16 57.17 58.60 56.27 59.81 63.79 64.65 64.36 58.50 57.09 54.86 54.77 51.32 51.02 51.92 48.81 44.61 45.48 49.16 49.30 50.44 51.79 51.12 51.61 50.87 50.50 52.00 55.58 57.62 57.17 57.01
54.57 54.67 55.00 55.70 55.99 56.00 56.19 55.91 55.99 56.49 57.06 57.43 57.54 58.04 57.47 55.98 57.16 55.13 62.50 64.08 64.40 62.91 57.94 57.33 56.19 53.20 49.98 50.22 49.88 49.83 46.09 50.02 50.66 51.63 50.09 49.06 50.51 52.00 48.82 48.08 53.08 52.62 53.58 54.86 55.03
53.88 54.20 54.56 55.21 55.62 55.87 55.59 55.50 55.89 56.37 56.95 57.21 57.85 58.17 56.93 58.61 49.05 54.09 63.21 64.14 64.26 61.92 57.79 54.77 53.09 50.04 48.76 47.83 50.12 45.36 49.64 49.87 50.53 51.50 49.86 48.47 49.41 49.72 48.40 50.77 54.52 53.24 54.34 54.21 53.41
53.15 53.29 53.78 54.03 55.28 55.60 55.42 55.07 55.46 55.57 56.25 57.29 58.00 57.96 57.47 55.02 53.64 58.67 63.63 63.78 60.82 58.00 55.12 53.45 50.61 49.28 46.63 47.85 48.24 47.95 49.26 50.32 51.53 51.22 49.24 50.77 47.99 48.81 49.97 53.03 55.05 54.52 54.52 53.36 53.26
52.86 52.71 53.12 53.81 54.68 55.23 55.15 54.85 54.52 54.64 55.64 57.19 58.12 57.27 55.41 50.73 58.74 59.71 58.86 59.49 58.49 56.25 55.41 54.51 51.97 52.36 49.35 48.02 46.80 49.41 49.06 49.00 50.49 50.10 49.86 49.23 48.94 47.85 50.07 52.93 53.52 53.96 50.92 51.95 53.04
52.80 52.53 52.75 53.38 54.23 54.55 54.70 54.41 54.23 54.31 55.51 57.34 58.24 56.30 53.63 53.44 56.35 56.91 57.32 55.78 58.51 57.11 54.85 56.28 55.45 51.74 51.06 48.95 52.32 51.14 47.11 48.80 50.24 49.11 48.58 48.84 44.50 46.29 50.81 53.78 52.58 52.61 51.35 52.65 56.26
52.57 52.43 52.22 52.55 53.46 53.62 53.63 53.37 53.70 54.62 55.41 57.20 58.01 55.06 51.98 57.98 57.25 56.88 55.53 55.41 58.56 57.90 56.75 56.52 56.21 53.15 51.44 52.14 50.89 47.85 46.28 41.99 48.88 50.05 50.32 48.19 42.93 50.39 51.70 51.28 51.32 51.99 51.69 52.75 56.38
52.38 52.12 52.16 52.49 52.86 53.02 53.09 53.11 53.62 55.14 56.03 57.04 54.00 54.49 49.66 59.84 54.74 55.49 54.01 54.30 55.74 56.37 56.08 58.54 55.44 50.52 50.28 45.50 43.48 44.99 39.24 43.00 45.23 48.84 47.76 46.11 43.21 48.85 50.39 49.64 49.24 49.35 49.60 53.47 54.15
51.69 51.89 52.12 52.55 52.92 52.55 52.43 53.11 55.32 54.43 56.42 57.12 58.00 49.09 52.99 51.33 53.58 54.48 54.29 56.05 54.22 53.91 51.79 52.10 50.08 46.48 46.01 43.47 37.02 39.99 40.20 39.65 39.90 44.64 45.80 44.87 43.85 46.58 48.11 47.85 48.27 48.33 51.17 51.84 53.63
51.07 51.94 52.19 52.55 52.80 52.49 50.77 52.74 50.36 52.73 52.90 48.49 48.54 50.05 51.45 52.87 54.50 52.26 55.36 53.75 52.80 49.91 44.10 49.17 44.22 41.51 43.91 46.01 46.36 44.45 41.63 39.74 41.72 46.04 44.70 43.76 43.87 45.67 47.36 47.81 45.73 49.20 50.09 50.53 51.65
51.08 51.77 51.83 52.41 52.28 52.09 51.06 49.89 48.18 48.80 44.11 52.15 52.54 51.31 53.64 52.07 49.76 51.55 54.35 49.59 49.52 43.76 46.16 43.06 41.62 46.07 47.90 46.80 44.83 43.33 41.12 39.89 42.75 45.79 44.38 42.05 41.84 44.39 45.32 46.62 48.82 49.00 48.96 49.29 50.14
51.13 51.41 51.45 51.42 51.23 52.90 49.86 49.81 54.55 54.89 44.85 50.08 51.58 50.55 50.78 50.18 48.83 48.51 51.12 49.63 48.24 45.21 45.30 41.48 44.52 49.40 47.42 44.25 43.96 42.70 40.46 40.37 40.56 42.99 42.66 41.17 38.33 40.97 46.04 50.00 51.14 50.24 50.03 49.92 48.30
51.04 51.21 50.64 50.75 52.89 50.30 48.63 52.70 56.78 55.43 41.37 45.26 47.26 48.27 50.02 50.61 49.13 51.25 51.50 49.10 50.27 45.68 45.51 44.06 49.05 47.23 44.26 43.37 43.19 39.05 44.18 44.38 42.83 39.24 32.81 39.67 29.98 39.98 46.34 46.90 48.25 47.63 46.77 46.41 47.04
50.91 51.18 51.44 51.52 49.54 47.92 50.17 53.70 55.12 54.72 28.13 45.89 45.78 50.84 49.54 47.64 48.03 49.43 51.08 49.00 45.38 44.51 43.25 42.39 45.67 44.28 43.39 43.49 44.35 41.08 45.67 43.60 42.82 37.90 33.45 36.32 32.09 36.68 46.44 43.85 45.15 45.54 46.71 45.79 46.53
50.66 51.19 51.46 51.27 50.91 50.08 54.80 56.17 55.05 37.92 28.96 43.09 46.93 46.04 46.35 47.03 47.00 47.85 48.73 48.84 47.92 44.94 45.68 44.10 47.68 45.78 44.78 45.83 43.40 43.11 40.09 38.90 37.45 34.96 29.79 35.51 33.01 32.62 38.92 43.27 45.43 47.00 47.19 47.14 46.39
49.98 50.81 51.21 52.97 47.71 52.88 54.67 53.38 36.02 29.76 46.71 40.84 42.63 45.59 45.26 43.58 44.73 44.02 44.18 39.90 36.22 33.87 35.64 39.88 43.76 45.96 46.16 39.92 41.78 38.66 34.35 28.11 28.58 28.61 28.97 37.76 33.52 34.96 43.77 46.25 46.70 46.00 46.23 46.88 44.13
49.71 49.30 51.70 52.01 52.71 52.99 53.56 43.78 32.37 43.34 43.54 44.10 43.79 43.59 41.79 41.99 41.42 42.21 40.72 36.85 39.04 36.97 33.68 33.26 35.44 40.36 42.28 39.19 36.02 35.80 34.56 29.30 23.88 24.58 28.14 36.41 30.23 36.51 46.31 46.82 45.73 45.80 47.93 46.34 44.85
48.93 49.90 50.13 50.88 52.57 52.31 47.17 33.47 34.08 41.92 43.08 42.85 41.33 38.83 39.27 40.80 39.91 39.79 38.12 37.24 37.75 37.52 32.57 32.81 34.92 41.01 41.77 41.41 39.02 36.95 32.75 37.39 32.38 32.69 27.73 30.74 35.02 40.16 43.21 41.97 43.07 42.58 42.31 41.62 42.09
47.57 47.34 48.45 51.14 52.01 50.76 41.86 38.66 41.68 44.81 44.31 42.67 37.77 40.05 37.19 37.89 37.11 37.30 38.32 39.85 39.49 40.24 39.34 37.17 29.99 39.38 41.63 41.64 40.65 37.59 39.36 30.77 31.01 23.05 22.39 28.79 30.90 32.16 37.25 38.41 40.27 39.64 38.91 39.87 41.64
47.64 42.84 49.37 52.13 51.02 43.75 35.05 38.26 44.04 45.23 44.63 42.08 40.04 39.41 39.66 38.36 36.96 37.42 37.49 39.82 40.68 39.71 39.14 37.52 34.02 34.90 38.78 36.80 34.88 35.44 33.91 34.81 34.38 31.35 23.80 21.34 27.94 38.97 37.30 39.03 38.53 39.03 40.31 39.09 40.32
46.28 37.64 49.90 50.41 37.86 38.29 34.65 42.81 43.33 43.30 45.09 43.63 42.30 41.67 39.97 39.52 38.62 37.78 37.88 38.63 41.42 40.03 36.32 37.68 33.92 27.90 32.86 39.45 40.02 37.63 36.01 35.98 28.45 26.79 29.10 26.27 27.39 39.30 38.58 39.88 39.75 39.34 40.64 40.61 40.77
41.59 42.22 48.67 48.38 31.96 33.16 40.94 43.86 44.82 42.73 42.05 41.73 40.96 42.04 41.23 38.74 33.91 38.08 38.71 41.56 41.64 39.93 34.97 35.30 30.02 23.33 29.93 35.00 38.58 35.78 37.16 36.15 34.30 31.22 26.59 19.34 25.24 39.97 39.59 39.06 39.50 39.01 40.13 40.78 41.67
42.59 35.53 39.71 41.16 41.15 38.54 39.87 39.92 39.89 43.70 42.94 43.31 41.80 41.92 39.01 37.76 38.91 36.82 38.45 41.68 41.80 39.34 41.80 38.91 31.83 29.13 23.61 29.66 34.18 30.77 34.03 34.91 32.26 24.98 26.54 27.63 29.82 34.89 36.47 36.35 36.45 38.45 39.87 41.45 40.79
42.25 39.20 39.05 30.45 32.64 36.62 41.26 41.85 39.38 38.07 42.32 41.90 39.53 39.30 37.90 34.01 36.71 35.28 38.91 39.20 41.05 41.47 38.55 35.35 28.48 32.57 34.10 34.94 34.83 33.57 33.29 32.73 31.17 31.80 26.75 30.28 30.51 33.99 35.25 36.19 37.21 39.29 40.37 41.02 41.39
39.70 38.40 40.78 40.75 40.07 37.14 39.13 39.35 39.17 39.87 39.58 38.18 37.37 39.76 39.09 35.52 37.28 35.29 38.13 37.21 36.25 37.34 36.02 36.79 28.10 31.30 29.62 34.34 34.18 31.10 33.02 32.84 33.17 33.74 32.50 32.38 30.78 37.01 38.10 38.75 38.01 38.79 39.59 39.58 39.86
42.88 44.52 44.30 41.11 39.33 35.44 36.18 40.10 41.01 40.56 41.77 42.13 40.24 38.50 37.26 37.72 38.29 37.85 38.41 38.23 37.56 35.01 33.87 33.00 30.29 26.69 23.90 31.85 30.73 25.07 31.96 33.47 33.33 34.53 32.83 27.76 32.20 36.35 35.13 35.69 35.66 36.86 38.35 39.87 40.73
MSLP
1019.21 1019.04 1018.83 1018.53 1018.19 1017.84 1017.48 1017.08 1016.61 1016.06 1015.44 1014.82 1014.24 1013.84 1013.51 1013.07 1011.65 1011.64 1011.87 1011.83 1011.51 1010.78 1010.28 1009.61 1008.69 1008.22 1007.94 1008.08 1007.97 1008.32 1009.23 1009.41 1008.90 1007.96 1007.30 1006.41 1006.11 1005.46 1005.09 1004.97 1004.87 1005.07 1005.30 1005.66 1005.54
1019.15 1019.10 1018.90 1018.64 1018.35 1017.97 1017.58 1017.17 1016.70 1016.13 1015.45 1014.79 1014.15 1013.68 1013.49 1013.32 1012.55 1011.84 1011.60 1011.36 1011.17 1010.91 1010.41 1010.05 1009.62 1008.83 1008.73 1008.35 1008.17 1008.49 1009.07 1008.99 1008.39 1007.90 1007.52 1006.87 1006.72 1006.45 1006.23 1005.91 1005.83 1005.51 1005.42 1005.32 1005.41
1019.06 1019.07 1018.92 1018.66 1018.38 1018.03 1017.58 1017.15 1016.69 1016.15 1015.52 1014.81 1014.05 1013.37 1013.18 1013.14 1012.57 1011.81 1011.32 1011.17 1010.85 1010.62 1010.50 1010.20 1009.66 1009.13 1009.07 1008.68 1008.47 1008.23 1008.71 1008.46 1007.96 1007.84 1007.51 1007.21 1006.83 1006.54 1006.63 1006.69 1006.40 1006.08 1005.93 1005.91 1005.79
1019.04 1019.02 1018.88 1018.62 1018.31 1017.96 1017.51 1017.04 1016.58 1016.03 1015.47 1014.83 1014.02 1013.23 1012.38 1012.40 1012.34 1011.37 1010.98 1010.87 1010.51 1010.30 1010.35 1009.98 1009.79 1009.97 1009.79 1009.81 1009.19 1009.39 1008.66 1008.54 1008.35 1007.88 1007.80 1007.64 1007.31 1007.16 1006.92 1006.58 1006.28 1005.85 1005.90 1006.07 1006.09
1019.11 1018.90 1018.77 1018.53 1018.21 1017.82 1017.36 1016.90 1016.48 1015.97 1015.45 1014.87 1014.22 1013.43 1012.19 1012.07 1011.44 1010.61 1010.75 1010.65 1010.52 1010.28 1010.32 1010.35 1010.31 1010.31 1010.56 1010.28 1009.97 1009.36 1009.28 1008.92 1008.34 1007.81 1007.73 1007.40 1007.51 1007.23 1006.79 1006.05 1006.06 1005.75 1005.84 1006.17 1006.33
1019.11 1018.87 1018.60 1018.35 1018.07 1017.69 1017.21 1016.68 1016.26 1015.82 1015.37 1014.95 1014.47 1013.63 1013.03 1011.94 1010.50 1010.50 1010.54 1010.33 1010.32 1010.32 1010.43 1010.39 1010.47 1010.38 1010.52 1010.60 1010.60 1009.89 1009.80 1009.27 1008.40 1007.84 1007.54 1007.33 1007.35 1006.83 1006.38 1005.98 1006.00 1006.05 1006.28 1006.33 1006.32
1019.07 1018.93 1018.60 1018.26 1017.95 1017.55 1016.99 1016.42 1016.02 1015.62 1015.21 1014.96 1014.70 1014.11 1013.12 1011.74 1010.74 1010.54 1010.65 1010.56 1010.21 1010.11 1010.29 1010.31 1010.31 1010.71 1010.75 1010.90 1010.13 1010.11 1010.14 1009.48 1008.46 1008.22 1007.08 1006.87 1007.29 1007.10 1006.79 1006.25 1006.32 1006.43 1006.74 1006.68 1007.25
1019.04 1018.89 1018.60 1018.18 1017.72 1017.22 1016.60 1016.00 1015.54 1015.26 1014.91 1014.76 1014.74 1014.19 1012.72 1010.93 1010.83 1010.85 1010.78 1010.55 1010.15 1009.98 1010.00 1009.99 1010.08 1010.44 1010.74 1010.81 1010.43 1010.68 1010.57 1010.31 1009.02 1008.39 1007.71 1007.85 1008.15 1007.58 1006.81 1006.80 1007.05 1006.84 1007.04 1007.75 1008.38
1019.01 1018.83 1018.52 1018.13 1017.56 1016.96 1016.37 1015.60 1014.97 1014.64 1014.64 1014.68 1014.55 1013.99 1012.20 1011.02 1011.01 1010.97 1010.80 1010.82 1010.57 1010.21 1009.94 1009.76 1010.12 1010.46 1010.60 1011.11 1011.45 1011.23 1011.26 1010.78 1009.74 1008.62 1008.68 1008.61 1008.67 1008.01 1007.46 1007.49 1007.57 1007.40 1007.90 1008.79 1009.12
1018.83 1018.76 1018.40 1017.99 1017.48 1016.94 1016.11 1014.95 1014.32 1014.40 1014.20 1014.33 1014.01 1013.77 1012.12 1011.73 1011.37 1011.05 1010.82 1010.67 1010.66 1010.51 1010.36 1009.98 1010.57 1010.83 1011.18 1011.62 1012.10 1011.92 1011.72 1011.22 1010.96 1010.07 1009.47 1009.29 1009.11 1008.65 1008.04 1008.00 1007.94 1008.55 1008.81 1009.28 1009.83
1018.68 1018.69 1018.34 1017.85 1017.27 1016.84 1016.25 1014.90 1015.22 1015.10 1014.35 1014.41 1013.79 1013.09 1012.32 1012.15 1011.42 1011.10 1010.85 1010.65 1010.46 1010.73 1011.03 1010.35 1011.02 1011.52 1011.44 1011.53 1011.70 1011.89 1012.08 1012.07 1011.45 1010.94 1010.56 1010.46 1010.08 1009.50 1008.71 1008.06 1008.53 1009.14 1009.47 1010.03 1010.60
1018.54 1018.56 1018.18 1017.75 1017.26 1016.70 1016.69 1016.89 1017.42 1017.60 1016.07 1013.88 1013.24 1012.78 1012.37 1012.31 1012.01 1011.67 1011.13 1011.38 1011.09 1011.26 1010.98 1011.01 1011.27 1011.26 1011.32 1011.44 1011.74 1012.02 1012.37 1012.63 1012.06 1011.76 1011.62 1011.02 1010.72 1009.67 1008.68 1008.95 1009.09 1009.79 1010.54 1010.92 1011.30
1018.55 1018.25 1018.17 1017.76 1017.23 1017.02 1017.34 1017.53 1017.20 1017.38 1016.84 1013.89 1013.12 1012.73 1012.57 1012.52 1012.16 1011.92 1011.96 1011.87 1011.62 1011.57 1011.70 1011.69 1011.84 1011.41 1011.68 1012.10 1012.44 1012.68 1013.21 1013.18 1013.22 1012.87 1012.42 1011.46 1011.25 1009.73 1008.54 1009.28 1009.68 1010.46 1011.07 1011.56 1012.10
1018.70 1018.37 1018.12 1017.71 1017.53 1017.34 1017.87 1017.65 1017.37 1017.57 1016.75 1014.50 1013.33 1013.03 1012.73 1012.55 1012.55 1012.24 1012.24 1012.42 1012.10 1012.03 1012.09 1012.14 1011.69 1011.87 1012.37 1012.93 1013.43 1013.60 1013.61 1013.71 1013.68 1013.95 1013.73 1012.74 1012.31 1010.79 1010.78 1010.83 1010.96 1011.48 1012.09 1012.60 1013.01
1018.60 1018.44 1018.12 1017.81 1018.16 1018.13 1018.36 1017.74 1017.41 1017.65 1016.65 1014.42 1013.56 1013.11 1012.83 1012.96 1012.81 1012.64 1012.32 1012.46 1012.79 1012.95 1013.26 1012.85 1012.42 1012.53 1013.07 1013.79 1013.89 1014.20 1013.89 1014.10 1013.95 1014.22 1014.56 1013.74 1013.43 1011.78 1011.40 1011.65 1012.10 1012.86 1013.37 1013.73 1014.02
1018.54 1018.43 1018.25 1018.02 1018.27 1018.44 1018.14 1017.97 1017.62 1017.61 1015.95 1014.42 1013.62 1013.41 1013.29 1013.16 1013.18 1012.92 1012.79 1013.00 1013.23 1013.59 1013.55 1013.23 1012.58 1013.14 1013.75 1014.07 1014.57 1014.59 1014.58 1014.57 1014.08 1014.47 1015.17 1014.96 1014.59 1013.53 1013.65 1013.29 1013.93 1014.20 1014.47 1014.72 1014.79
1018.84 1018.53 1018.22 1018.15 1018.89 1018.49 1018.41 1018.25 1018.24 1017.46 1015.22 1014.92 1014.12 1013.89 1013.64 1013.95 1013.92 1013.95 1014.04 1015.02 1015.70 1015.87 1015.21 1014.13 1013.87 1014.27 1014.43 1014.68 1014.89 1015.62 1015.91 1016.36 1016.31 1015.91 1016.03 1015.00 1015.34 1015.58 1014.87 1014.67 1015.01 1015.29 1015.32 1015.29 1015.51
1018.97 1018.83 1018.79 1018.65 1018.61 1018.76 1018.83 1018.79 1018.15 1016.29 1015.22 1014.93 1014.61 1014.47 1014.42 1014.73 1014.98 1014.98 1015.41 1016.57 1017.15 1017.41 1017.25 1016.52 1015.84 1015.57 1015.41 1015.86 1016.43 1016.74 1017.04 1017.82 1018.24 1018.36 1017.40 1016.44 1015.86 1016.22 1015.18 1015.20 1015.21 1015.29 1015.64 1015.76 1015.88
1019.40 1019.02 1019.05 1019.16 1018.65 1018.91 1019.43 1018.91 1017.67 1016.55 1015.70 1015.14 1014.96 1014.94 1015.06 1015.32 1015.74 1015.91 1016.87 1017.84 1018.69 1018.80 1018.91 1018.33 1017.46 1016.70 1016.41 1016.62 1017.09 1017.26 1017.75 1018.15 1018.84 1019.08 1019.07 1017.35 1016.14 1015.52 1015.15 1015.48 1015.64 1016.18 1016.19 1016.23 1016.18
1019.64 1019.29 1019.39 1018.96 1018.78 1019.15 1019.56 1018.56 1017.28 1016.44 1016.19 1015.72 1015.42 1015.30 1015.48 1015.87 1016.24 1016.58 1017.52 1018.78 1019.37 1019.63 1019.78 1019.98 1019.43 1018.06 1017.29 1017.11 1017.08 1017.50 1018.00 1018.88 1019.85 1020.88 1020.67 1018.73 1017.28 1016.48 1016.09 1015.86 1016.32 1016.80 1016.93 1016.69 1016.50
1019.62 1019.54 1019.52 1019.00 1019.21 1019.50 1019.80 1018.41 1017.16 1016.63 1016.57 1016.74 1016.26 1015.97 1016.04 1016.39 1016.86 1017.31 1018.45 1019.71 1020.12 1020.51 1020.69 1020.88 1020.86 1019.69 1018.69 1018.14 1018.35 1018.31 1018.77 1019.88 1020.83 1021.74 1021.96 1021.02 1017.92 1016.54 1016.95 1017.28 1017.20 1017.16 1017.04 1016.92 1016.78
1019.68 1020.03 1019.65 1019.52 1020.08 1019.68 1019.26 1017.95 1017.31 1017.18 1017.10 1017.06 1017.04 1016.61 1016.63 1016.99 1017.46 1018.20 1019.37 1020.39 1021.11 1021.66 1022.05 1022.46 1022.26 1022.00 1020.33 1018.84 1018.90 1019.14 1020.24 1020.99 1022.11 1022.63 1022.88 1022.42 1018.97 1018.68 1018.20 1017.80 1017.91 1017.70 1017.48 1017.12 1016.75
1020.03 1020.21 1019.91 1019.93 1020.15 1019.92 1018.61 1017.83 1017.38 1017.48 1017.54 1017.42 1017.48 1017.44 1017.34 1017.65 1018.34 1018.97 1020.13 1021.46 1021.72 1022.46 1023.25 1023.54 1023.29 1023.15 1021.44 1020.47 1020.05 1020.63 1021.46 1022.09 1022.54 1022.85 1022.48 1023.20 1020.42 1019.13 1018.86 1018.62 1018.67 1018.68 1018.26 1017.25 1016.51
1020.17 1020.39 1020.53 1020.59 1020.02 1019.38 1018.71 1018.33 1017.98 1017.86 1017.83 1017.79 1018.16 1018.17 1018.37 1018.48 1018.97 1019.91 1020.90 1021.95 1022.30 1023.13 1023.61 1023.78 1024.04 1024.07 1023.92 1023.10 1022.69 1022.55 1022.68 1022.73 1023.13 1023.45 1023.03 1022.31 1021.30 1020.42 1019.99 1020.16 1020.18 1019.86 1019.40 1018.13 1017.41
1020.32 1020.09 1019.57 1020.56 1019.98 1019.46 1018.68 1018.22 1018.33 1018.47 1018.46 1018.76 1018.89 1018.91 1019.08 1019.46 1019.93 1020.67 1021.30 1022.45 1022.89 1023.53 1023.86 1024.35 1024.77 1024.79 1024.76 1024.15 1023.79 1023.32 1022.81 1022.95 1023.21 1023.25 1023.52 1022.43 1022.40 1021.91 1021.80 1021.79 1021.66 1021.08 1020.38 1019.93 1019.45
1020.47 1020.16 1019.62 1019.59 1018.90 1019.19 1018.56 1018.13 1018.14 1018.53 1019.00 1019.42 1019.42 1019.39 1019.83 1020.44 1020.95 1021.56 1021.56 1022.47 1023.08 1024.06 1024.06 1024.34 1025.04 1025.41 1025.51 1024.92 1024.43 1023.60 1023.13 1022.90 1022.78 1022.94 1022.93 1023.31 1023.36 1023.56 1022.80 1022.47 1022.11 1021.81 1021.23 1020.97 1020.35
1019.94 1019.76 1019.82 1019.31 1018.94 1019.10 1018.69 1018.15 1017.94 1018.37 1019.55 1019.81 1019.92 1020.09 1021.00 1021.90 1022.04 1022.46 1022.77 1023.27 1023.63 1023.77 1024.24 1024.82 1025.61 1026.34 1026.48 1025.88 1025.22 1024.23 1023.37 1023.00 1023.14 1023.51 1023.83 1024.69 1025.03 1024.31 1023.12 1023.13 1023.20 1022.63 1021.97 1021.01 1020.84
Wind_Speed
7 8 9 10 12 12 14 14 15 16 16 17 17 16 15 15 19 1 2 4 5 14 10 9 6 8 5 5 5 2 3 4 6 9 7 8 10 10 9 11 6 11 13 5 3
7 8 9 10 11 12 12 14 15 15 16 17 18 17 13 11 4 6 3 7 10 8 8 8 12 11 6 4 4 5 2 5 5 3 6 8 10 8 9 10 9 9 10 10 7
7 9 10 11 11 12 12 13 14 15 16 17 18 18 11 8 1 1 4 9 11 6 5 7 8 7 6 5 6 4 1 6 9 5 7 7 9 7 7 10 2 5 6 7 6
6 8 9 11 12 12 13 13 14 15 16 16 18 19 21 3 4 1 7 10 11 8 6 6 9 10 6 7 8 6 9 6 8 9 10 9 8 7 6 9 4 5 5 6 10
7 7 9 11 13 14 14 14 15 15 15 15 17 17 9 5 3 6 6 10 7 5 7 7 8 6 7 7 11 6 8 10 10 12 11 8 4 1 7 11 3 5 7 7 8
6 8 9 11 13 14 14 14 14 15 15 14 14 19 3 4 3 5 5 7 5 5 8 7 5 7 5 4 5 7 8 11 14 15 12 12 4 3 11 9 4 2 1 5 5
5 8 9 10 12 14 15 15 14 14 14 12 12 6 3 4 5 5 8 7 7 1 3 7 7 6 7 8 9 9 9 12 16 10 11 4 3 4 5 7 8 9 6 6 14
6 7 10 11 13 14 16 16 16 15 13 11 9 4 3 3 5 8 7 9 9 9 2 5 5 4 3 7 10 9 5 4 9 13 6 5 6 7 9 7 9 10 7 7 11
6 8 9 12 14 15 17 20 18 14 9 9 4 1 4 1 7 7 4 5 7 8 5 6 1 6 5 3 6 5 2 8 11 11 8 8 7 6 9 9 11 9 7 11 11
6 8 10 12 14 14 19 17 5 9 1 4 6 4 4 5 5 9 5 5 7 8 8 4 2 3 6 5 1 6 7 8 7 9 13 13 12 11 12 10 14 6 9 9 15
5 8 10 12 15 14 11 6 8 5 6 3 6 3 4 7 6 3 6 7 5 4 5 9 3 3 4 6 5 5 6 7 8 10 10 11 14 16 18 18 4 8 9 9 12
5 7 10 12 14 19 0 6 3 5 8 7 5 4 4 3 5 5 9 6 5 5 9 8 4 4 6 8 7 8 6 7 6 13 13 15 19 17 14 2 8 10 11 12 14
7 8 10 11 12 5 9 5 4 7 2 6 2 3 3 4 4 8 7 8 6 5 5 3 1 7 8 8 10 6 9 9 9 9 9 11 9 8 15 12 13 13 12 13 12
6 8 9 14 5 4 3 7 5 3 3 4 3 2 3 3 1 2 6 3 5 4 5 4 4 9 7 8 9 6 9 8 11 7 4 5 7 13 10 10 9 10 11 10 11
5 7 8 7 2 4 4 6 4 3 4 3 3 3 4 2 4 1 2 5 4 7 6 7 3 4 4 4 6 6 7 8 12 9 4 7 3 8 8 3 8 10 13 11 11
5 7 8 3 2 4 7 7 3 8 4 3 3 1 2 4 3 5 2 4 4 5 7 8 4 5 3 5 7 9 9 9 6 2 1 3 2 6 11 13 16 14 12 10 9
6 7 3 2 0 5 5 3 7 5 2 4 2 3 2 3 2 6 5 8 6 7 6 6 5 6 5 5 9 12 7 5 7 6 4 17 7 5 14 16 14 8 7 8 10
5 8 4 2 4 5 3 5 3 5 1 2 2 3 2 4 2 3 7 4 10 7 4 4 2 6 4 5 3 5 1 3 3 3 9 5 4 2 12 13 11 11 8 10 13
5 1 1 2 2 3 4 5 8 3 5 1 4 3 4 3 1 3 5 4 4 8 5 6 1 6 11 4 4 4 4 2 2 4 3 5 5 8 10 19 17 17 15 13 14
1 2 1 2 3 4 5 4 3 4 4 4 2 2 3 4 3 4 4 4 3 6 6 5 5 7 3 4 1 6 3 5 4 2 5 7 12 10 15 24 16 11 9 9 8
1 3 3 3 3 5 4 5 2 7 6 4 4 1 1 2 3 0 4 5 6 7 7 5 2 9 5 1 4 5 2 5 2 1 4 4 10 10 22 13 17 16 14 6 8
0 2 3 3 4 2 2 3 4 6 2 2 3 3 3 4 2 3 5 5 6 4 5 5 2 3 7 10 1 4 6 6 3 7 2 4 21 11 10 17 19 14 13 11 9
2 3 3 4 4 2 4 3 2 4 5 3 3 4 4 3 1 3 7 5 5 6 3 4 3 3 8 7 8 6 10 10 6 1 12 2 11 14 13 16 12 19 20 17 18
1 3 3 1 2 1 5 5 3 5 3 2 3 2 1 1 5 2 5 4 5 5 5 4 0 3 5 6 6 7 12 10 6 3 10 10 17 16 13 16 16 20 23 23 13
1 4 7 4 4 5 1 7 7 4 0 2 1 5 6 3 5 5 5 5 5 9 4 4 1 2 6 9 10 14 14 8 10 11 8 16 14 17 14 17 16 17 22 21 24
2 2 4 3 5 8 4 6 10 8 7 5 4 8 5 3 3 4 2 4 5 4 7 5 2 2 5 10 6 8 11 9 6 8 9 12 12 16 19 18 20 20 19 15 10
2 0 4 4 2 5 4 5 6 11 2 4 5 1 9 6 7 5 6 3 3 2 2 2 2 3 4 9 9 6 4 7 5 8 6 11 12 18 23 21 20 20 22 17 13
Wind_Direction
33 17 2 353 349 347 345 340 337 334 331 326 324 325 331 335 316 129 50 282 285 310 307 290 300 295 311 220 193 124 15 326 314 358 311 14 21 344 339 4 350 34 63 96 153
34 13 1 351 344 343 340 336 332 329 326 323 320 320 328 337 307 49 287 282 277 294 346 327 321 319 321 274 278 131 121 253 286 353 5 7 24 337 19 350 349 20 19 22 18
33 10 357 348 342 336 335 330 328 326 323 320 318 318 321 318 37 59 250 272 270 291 261 300 295 3 327 335 337 297 261 296 325 14 17 348 345 329 26 332 344 43 11 12 346
37 10 355 345 338 333 329 325 325 324 322 320 321 322 317 168 97 173 235 262 278 309 313 332 349 343 337 349 332 0 325 8 320 337 346 324 294 331 14 270 255 65 49 3 336
24 13 357 346 336 331 328 325 324 322 320 320 323 329 354 2 68 212 231 264 286 299 332 345 342 360 2 316 340 347 335 329 326 313 302 285 321 271 281 291 282 73 38 350 340
20 5 356 344 335 326 322 323 321 316 315 315 327 321 348 38 290 89 326 322 305 351 331 331 322 330 284 312 338 310 318 307 292 281 272 271 201 80 276 292 253 7 23 310 347
23 359 350 339 329 320 312 309 312 308 306 308 332 321 315 272 354 18 17 307 296 356 306 315 325 7 330 319 276 295 311 301 288 300 278 147 310 250 324 357 17 351 317 324 79
13 358 345 335 324 314 308 305 304 299 296 299 326 313 277 307 340 17 354 322 354 328 337 303 305 293 223 260 291 284 316 316 295 5 338 73 264 308 342 12 330 333 342 50 67
9 351 342 330 319 312 311 303 294 286 259 295 328 80 298 294 28 318 297 302 336 303 291 235 290 225 304 238 330 22 335 340 334 338 339 26 312 324 343 348 322 300 0 87 73
11 346 338 328 317 318 315 296 279 332 165 243 261 13 306 345 354 296 291 317 295 284 312 260 215 223 343 70 335 332 341 340 330 311 355 352 332 335 324 322 290 45 85 78 79
18 341 333 328 324 326 344 2 11 5 4 335 285 310 322 329 298 276 354 329 271 263 254 282 109 309 4 19 349 335 335 317 297 353 4 331 322 317 301 293 350 106 85 72 73
21 340 337 332 330 323 38 64 103 202 317 297 259 264 193 6 295 22 21 0 348 313 315 358 32 68 21 356 354 343 329 343 340 355 351 319 303 285 277 24 108 89 67 65 54
357 349 333 329 324 358 80 42 37 8 239 304 75 341 2 339 295 1 27 321 268 303 9 41 343 43 34 7 6 351 31 351 329 336 307 310 300 302 314 91 80 72 78 65 63
349 340 338 315 40 318 44 343 30 27 47 166 173 32 304 292 302 9 2 311 322 30 17 286 39 48 24 34 16 355 345 340 311 336 304 14 290 309 87 77 80 75 68 62 52
1 348 333 21 248 60 335 337 312 59 28 23 84 296 273 316 316 127 269 340 341 349 28 270 60 62 16 14 346 259 267 286 281 286 333 347 7 288 119 127 95 68 64 53 52
17 345 327 59 42 354 344 311 35 47 274 100 118 54 246 12 26 307 264 26 305 310 276 248 184 55 70 340 50 332 3 315 297 219 113 53 145 303 33 38 63 55 51 51 51
354 344 27 359 150 335 324 21 47 117 210 132 87 273 225 61 50 341 33 43 40 13 4 322 74 96 40 27 4 12 13 353 1 1 243 9 360 45 56 59 58 50 49 43 31
336 336 355 74 3 342 347 61 124 231 239 52 84 297 18 22 105 336 3 95 27 19 329 353 353 22 344 101 8 313 321 107 301 330 291 300 218 163 84 55 31 8 34 19 18
349 315 132 295 350 42 61 77 194 350 350 41 135 271 167 126 122 7 82 64 55 31 43 11 145 1 62 45 86 333 25 248 283 274 322 258 310 64 84 26 19 16 2 357 350
268 145 18 239 37 56 75 207 188 74 347 338 281 6 4 139 172 180 121 353 75 62 35 5 316 300 38 30 309 162 209 26 344 324 290 301 305 248 351 356 5 4 349 336 9
7 81 273 56 49 50 150 227 190 84 38 15 326 139 335 86 34 71 93 55 28 17 331 18 77 301 10 266 5 2 18 30 120 189 213 316 284 1 343 343 347 341 336 350 340
244 98 267 57 70 205 186 211 327 116 57 243 293 326 33 72 171 340 93 66 33 319 19 355 114 294 260 266 350 103 33 43 71 292 231 221 276 310 331 343 342 340 343 333 317
162 143 316 71 138 237 276 113 7 121 174 171 251 13 52 138 155 66 96 98 55 61 66 334 351 1 339 26 15 35 360 352 333 50 290 203 273 331 322 330 343 343 338 324 315
40 93 355 39 266 190 169 154 146 25 336 36 70 43 86 199 72 84 119 149 117 116 122 85 321 144 196 261 317 320 323 311 278 257 283 271 297 321 337 8 6 359 353 349 335
69 222 174 201 261 228 223 179 169 160 282 319 140 223 194 185 164 186 100 134 150 160 148 126 196 348 319 312 308 291 293 324 304 279 269 300 324 338 20 359 7 358 4 9 13
165 94 348 259 167 186 223 211 172 161 159 224 242 210 246 61 28 94 113 57 136 240 167 174 235 330 283 279 320 315 314 310 346 344 338 339 328 359 340 340 345 344 338 340 15
229 309 91 311 158 135 217 217 189 125 74 41 237 189 77 56 74 69 76 49 8 67 91 92 94 55 254 359 322 329 344 324 1 1 357 344 342 340 340 337 337 336 323 314 330